Tubul — A8VP8 — position and weather

sailwx.info

Track history (hours):
 
Tides and Currents Weather Stations Pressure Air Temp Water Temp Dewpoint Dewpoint Depression Visibility Wind Speed Wind Dir Waves Ship Positions

Tubul

Last reported at 2014-Oct-25 14:05 UTC. Time now 2014-Oct-26 07:07 UTC.
Position N 22°20' E 114°07'.

Length 300 m; draft 12 m.

Type: Ship. MMSI: 636014647.

Date/timePositionNaut miles runAvg speedWind from/ knotsBaromVisibWave heightAir tempDewpointWater temp
2014-Oct-25 14:05N 22°20' E 114°07'0 0.4
2014-Oct-25 13:12N 22°20' E 114°07'17 2.4
2014-Oct-25 06:09N 22°34' E 114°16'0 0.0
2014-Oct-25 05:33N 22°34' E 114°16'0 0.0
2014-Oct-25 04:21N 22°34' E 114°16'0 0.0
2014-Oct-25 00:15N 22°34' E 114°16'0 0.0
2014-Oct-24 21:24N 22°34' E 114°16'150 6.9
2014-Oct-23 23:32N 22°51' E 116°58'1611.1
2014-Oct-23 22:07N 22°58' E 117°13'6112.1
2014-Oct-23 17:06N 23°33' E 118°08'712.2
2014-Oct-23 16:31N 23°37' E 118°13'41111.3
2014-Oct-22 04:13N 29°15' E 122°35'1911.5
2014-Oct-22 02:33N 29°35' E 122°34'1010.5
2014-Oct-22 01:33N 29°42' E 122°26'10 9.9
2014-Oct-22 00:33N 29°47' E 122°16'8 8.6
2014-Oct-21 23:34N 29°48' E 122°06'5 0.5
2014-Oct-21 13:12N 29°46' E 122°00'0 0.0
2014-Oct-21 09:18N 29°46' E 122°00'0 0.0
2014-Oct-21 06:18N 29°46' E 122°00'0 0.0
2014-Oct-21 04:25N 29°46' E 122°00'4 4.9
2014-Oct-21 03:31N 29°48' E 122°05'8 7.8
2014-Oct-21 02:33N 29°49' E 122°14'1010.1
2014-Oct-21 01:33N 29°44' E 122°24'6 6.0
2014-Oct-21 00:33N 29°42' E 122°30'2512.5
2014-Oct-20 22:33N 29°57' E 122°54'1413.8
2014-Oct-20 21:31N 30°10' E 122°60'1313.4
2014-Oct-20 20:33N 30°22' E 122°54'1413.8
2014-Oct-20 19:33N 30°29' E 122°40'1211.9
2014-Oct-20 18:33N 30°31' E 122°27'1312.9
2014-Oct-20 17:34N 30°34' E 122°12'8 0.9
2014-Oct-20 08:07N 30°37' E 122°04'0 0.0
2014-Oct-19 18:11N 30°37' E 122°04'0 0.4
2014-Oct-19 17:32N 30°37' E 122°04'8 8.3
2014-Oct-19 16:33N 30°34' E 122°12'8 8.2
2014-Oct-19 15:33N 30°33' E 122°22'4 4.2
2014-Oct-19 14:33N 30°32' E 122°26'9 9.0
2014-Oct-19 13:33N 30°32' E 122°37'1111.6
2014-Oct-19 12:33N 30°31' E 122°50'1211.7
2014-Oct-19 11:31N 30°37' E 123°03'2211.5
2014-Oct-19 09:33N 30°46' E 123°27'1511.9
2014-Oct-19 08:20N 30°53' E 123°42'  
Track history (hours):
 
Tides and Currents Weather Stations Pressure Air Temp Water Temp Dewpoint Dewpoint Depression Visibility Wind Speed Wind Dir Waves Ship Positions

Tubul

Last reported at 2014-Oct-25 14:05 UTC. Time now 2014-Oct-26 07:07 UTC.
Position N 22°20' E 114°07'.

Length 300 m; draft 12 m.

Type: Ship. MMSI: 636014647.

Date/timePositionNaut miles runAvg speedWind from/ knotsBaromVisibWave heightAir tempDewpointWater temp
2014-Oct-25 14:05N 22°20' E 114°07'0 0.4
2014-Oct-25 13:12N 22°20' E 114°07'17 2.4
2014-Oct-25 06:09N 22°34' E 114°16'0 0.0
2014-Oct-25 05:33N 22°34' E 114°16'0 0.0
2014-Oct-25 04:21N 22°34' E 114°16'0 0.0
2014-Oct-25 00:15N 22°34' E 114°16'0 0.0
2014-Oct-24 21:24N 22°34' E 114°16'150 6.9
2014-Oct-23 23:32N 22°51' E 116°58'1611.1
2014-Oct-23 22:07N 22°58' E 117°13'6112.1
2014-Oct-23 17:06N 23°33' E 118°08'712.2
2014-Oct-23 16:31N 23°37' E 118°13'41111.3
2014-Oct-22 04:13N 29°15' E 122°35'1911.5
2014-Oct-22 02:33N 29°35' E 122°34'1010.5
2014-Oct-22 01:33N 29°42' E 122°26'10 9.9
2014-Oct-22 00:33N 29°47' E 122°16'8 8.6
2014-Oct-21 23:34N 29°48' E 122°06'5 0.5
2014-Oct-21 13:12N 29°46' E 122°00'0 0.0
2014-Oct-21 09:18N 29°46' E 122°00'0 0.0
2014-Oct-21 06:18N 29°46' E 122°00'0 0.0
2014-Oct-21 04:25N 29°46' E 122°00'4 4.9
2014-Oct-21 03:31N 29°48' E 122°05'8 7.8
2014-Oct-21 02:33N 29°49' E 122°14'1010.1
2014-Oct-21 01:33N 29°44' E 122°24'6 6.0
2014-Oct-21 00:33N 29°42' E 122°30'2512.5
2014-Oct-20 22:33N 29°57' E 122°54'1413.8
2014-Oct-20 21:31N 30°10' E 122°60'1313.4
2014-Oct-20 20:33N 30°22' E 122°54'1413.8
2014-Oct-20 19:33N 30°29' E 122°40'1211.9
2014-Oct-20 18:33N 30°31' E 122°27'1312.9
2014-Oct-20 17:34N 30°34' E 122°12'8 0.9
2014-Oct-20 08:07N 30°37' E 122°04'0 0.0
2014-Oct-19 18:11N 30°37' E 122°04'0 0.4
2014-Oct-19 17:32N 30°37' E 122°04'8 8.3
2014-Oct-19 16:33N 30°34' E 122°12'8 8.2
2014-Oct-19 15:33N 30°33' E 122°22'4 4.2
2014-Oct-19 14:33N 30°32' E 122°26'9 9.0
2014-Oct-19 13:33N 30°32' E 122°37'1111.6
2014-Oct-19 12:33N 30°31' E 122°50'1211.7
2014-Oct-19 11:31N 30°37' E 123°03'2211.5
2014-Oct-19 09:33N 30°46' E 123°27'1511.9
2014-Oct-19 08:20N 30°53' E 123°42'  

Dump ship's entire track history